This is the latest recevied weather packets stored in our database for station/object K5FEP. If no packets are shown the sender has not sent any weather packets the latest 10 day(s).
| Time | Temp. | Humidity | Pressure | Rain* | Wind** | Luminosity | Snow |
|---|---|---|---|---|---|---|---|
| 1788201337 | 33.33° C | 48% | 1018.3 hPa | 0 mm | - | 269 W/m² | - |
| 1788201037 | 33.89° C | 45% | 1018.1 hPa | 0 mm | - | 209 W/m² | - |
| 1788200731 | 33.89° C | 43% | 1018.1 hPa | 0 mm | - | 297 W/m² | - |
| 1788200427 | 34.44° C | 42% | 1018.2 hPa | 0 mm | - | 150 W/m² | - |
| 1788200127 | 34.44° C | 44% | 1018.2 hPa | 0 mm | - | 188 W/m² | - |
| 1788199827 | 35° C | 43% | 1018.1 hPa | 0 mm | - | 287 W/m² | - |
| 1788199521 | 35° C | 43% | 1018.3 hPa | 0 mm | - | 316 W/m² | - |
| 1788199216 | 35° C | 42% | 1018.1 hPa | 0 mm | - | 504 W/m² | - |
| 1788198912 | 34.44° C | 43% | 1018.5 hPa | 0 mm | - | 1062 W/m² | - |
| 1788198609 | 34.44° C | 43% | 1018.4 hPa | 0 mm | - | 895 W/m² | - |
| 1788198303 | 33.89° C | 44% | 1018.4 hPa | 0 mm | - | 981 W/m² | - |
| 1788198003 | 32.78° C | 46% | 1018.5 hPa | 0 mm | - | 969 W/m² | - |
| 1788197701 | 32.78° C | 49% | 1018.3 hPa | 0 mm | - | 184 W/m² | - |
| 1788197397 | 33.33° C | 46% | 1018.6 hPa | 0 mm | - | 109 W/m² | - |
| 1788197093 | 33.33° C | 46% | 1018.6 hPa | 0 mm | - | 112 W/m² | - |
| 1788196788 | 33.89° C | 45% | 1018.4 hPa | 0 mm | - | 141 W/m² | - |
| 1788196483 | 34.44° C | 45% | 1018.5 hPa | 0 mm | - | 193 W/m² | - |
| 1788196180 | 35° C | 42% | 1018.5 hPa | 0 mm | - | 238 W/m² | - |
| 1788195876 | 35° C | 42% | 1018.6 hPa | 0 mm | - | 1001 W/m² | - |
| 1788195573 | 34.44° C | 44% | 1018.7 hPa | 0 mm | - | 982 W/m² | - |
| 1788195268 | 35° C | 44% | 1018.5 hPa | 0 mm | - | 946 W/m² | - |
| 1788194964 | 34.44° C | 44% | 1018.6 hPa | 0 mm | - | 923 W/m² | - |
| 1788194660 | 33.89° C | 46% | 1018.8 hPa | 0 mm | - | 918 W/m² | - |
| 1788194355 | 33.89° C | 45% | 1018.7 hPa | 0 mm | - | 914 W/m² | - |
| 1788194051 | 33.89° C | 46% | 1018.8 hPa | 0 mm | - | 907 W/m² | - |
* Rain latest hour (hover to see other rain measurements)
** Current wind speed in m/s (hover to see current wind gust speed)